Ellensburg, WA
on Saturday, January 5, 2013

Saturday
Previous Day Next Day
Daily Summary
 ActualAverage (KYKM)Record (KYKM)
Temperature
Mean Temperature °F 29°F  
Max Temperature 30°F 36°F 56°F (1954)
Min Temperature 26°F 22°F -14°F (2004)
Degree Days
Heating Degree Days 37 36  
Month to date heating degree days 183  
Since 1 July heating degree days 2846  
Cooling Degree Days 0 0  
Month to date cooling degree days 0  
Year to date cooling degree days 0  
Moisture
Dew Point 22°F   
Average Humidity 78    
Maximum Humidity 86    
Minimum Humidity 72    
Precipitation
Precipitation 0.00 in 0.05 in 0.67 in (1966)
Month to date precipitation 0.22  
Year to date precipitation 0.22  
Snow
Snow 0.00 in 0.20 in 3.40 in (1966)
Month to date snowfall 1.2  
Year to date snowfall 1.2  
Since 1 July snowfall 14.2  
Snow Depth in   
Wind
Wind Speed 0 mph   
Max Wind Speed 5 mph   
Max Gust Speed mph   
Visibility 4 miles   
Events Snow   

Key: T is trace of precipitation, MM is missing value
Source: NWS Daily Summary
Time(PST)TemperatureDew PointHumidity Pressure Visibility Wind DirectionWind SpeedGust SpeedPrecipitationEvents Conditions
12:53 AM 27.0°F 19.9°F 75% 30.42 in 8.0 miles Calm Calm - N/A   Overcast
1:53 AM 27.0°F 19.9°F 75% 30.41 in 8.0 miles Calm Calm - N/A   Overcast
2:53 AM 27.0°F 19.9°F 75% 30.41 in 9.0 miles NNW 4.6 mph - N/A   Overcast
3:53 AM 27.0°F 19.9°F 75% 30.39 in 9.0 miles Calm Calm - N/A   Overcast
4:53 AM 28.0°F 19.9°F 72% 30.38 in 10.0 miles Calm Calm - N/A   Overcast
5:53 AM 28.0°F 19.9°F 72% 30.38 in 10.0 miles Calm Calm - N/A   Overcast
6:15 AM 26.6°F 21.2°F 80% 30.32 in 10.0 miles Calm Calm - N/A   Overcast
6:53 AM 26.1°F 19.9°F 78% 30.37 in 7.0 miles Calm Calm - N/A   Overcast
7:53 AM 27.0°F 21.0°F 78% 30.37 in 5.0 miles Calm Calm - N/A   Haze
8:11 AM 26.6°F 21.2°F 80% 30.30 in 4.0 miles Calm Calm - N/A   Haze
8:53 AM 28.0°F 21.0°F 75% 30.36 in 4.0 miles Calm Calm - N/A   Haze
9:53 AM 28.0°F 21.9°F 78% 30.37 in 5.0 miles Calm Calm - N/A   Haze
10:53 AM 30.0°F 21.9°F 72% 30.36 in 5.0 miles Calm Calm - N/A   Haze
11:53 AM 30.0°F 21.9°F 72% 30.34 in 6.0 miles Calm Calm - N/A   Haze
12:53 PM 30.0°F 21.9°F 72% 30.32 in 5.0 miles Calm Calm - N/A   Haze
1:17 PM 30.2°F 23.0°F 75% 30.25 in 2.0 miles Calm Calm - 0.00 in Snow Light Snow
1:24 PM 30.2°F 23.0°F 75% 30.25 in 1.5 miles Calm Calm - 0.00 in Snow Light Snow
1:34 PM 30.2°F 23.0°F 75% 30.25 in 0.8 miles Calm Calm - 0.00 in Snow Light Snow
1:45 PM 30.2°F 24.8°F 80% 30.25 in 0.5 miles Calm Calm - 0.00 in Snow Snow
1:53 PM 30.0°F 23.0°F 75% 30.31 in 0.5 miles Calm Calm - 0.00 in Snow Snow
2:15 PM 30.2°F 23.0°F 75% 30.24 in 0.8 miles Calm Calm - 0.00 in Snow Light Snow
2:51 PM 30.2°F 24.8°F 80% 30.24 in 0.8 miles North - - 0.00 in Snow Light Snow
2:53 PM 30.0°F 24.1°F 79% 30.30 in 0.8 miles Calm Calm - 0.00 in Snow Light Snow
3:23 PM 30.2°F 24.8°F 80% 30.24 in 1.0 miles Calm Calm - 0.00 in Snow Light Snow
3:43 PM 28.4°F 23.0°F 80% 30.24 in 1.0 miles Calm Calm - 0.00 in Snow Light Snow
3:53 PM 28.9°F 23.0°F 78% 30.30 in 1.0 miles Calm Calm - 0.00 in Snow Light Snow
3:56 PM 28.4°F 23.0°F 80% 30.24 in 1.2 miles Calm Calm - 0.00 in Snow Light Snow
4:17 PM 28.4°F 23.0°F 80% 30.24 in 1.0 miles Calm Calm - 0.00 in Snow Light Snow
4:24 PM 28.4°F 23.0°F 80% 30.24 in 1.2 miles Calm Calm - 0.00 in Snow Light Snow
4:53 PM 28.9°F 24.1°F 82% 30.29 in 1.8 miles Calm Calm - 0.00 in Snow Light Snow
5:02 PM 28.4°F 24.8°F 86% 30.22 in 1.8 miles Calm Calm - 0.00 in Snow Light Snow
5:38 PM 28.4°F 23.0°F 80% 30.22 in 2.0 miles Calm Calm - 0.00 in Snow Light Snow
5:53 PM 28.9°F 23.0°F 78% 30.28 in 2.5 miles Calm Calm - 0.00 in Snow Light Snow
6:17 PM 28.4°F 23.0°F 80% 30.21 in 3.0 miles Calm Calm - 0.00 in   Haze
6:46 PM 28.4°F 23.0°F 80% 30.21 in 2.5 miles Calm Calm - 0.00 in   Haze
6:53 PM 28.0°F 23.0°F 81% 30.28 in 2.5 miles Calm Calm - 0.00 in   Haze
7:32 PM 28.4°F 23.0°F 80% 30.21 in 3.0 miles NNE 4.6 mph - N/A   Haze
7:41 PM 28.4°F 23.0°F 80% 30.20 in 3.0 miles NNE 3.5 mph - N/A   Haze
7:53 PM 28.9°F 23.0°F 78% 30.26 in 4.0 miles Calm Calm - N/A   Haze
8:40 PM 28.4°F 23.0°F 80% 30.20 in 4.0 miles SW 3.5 mph - N/A   Haze
8:53 PM 28.0°F 23.0°F 81% 30.25 in 3.0 miles Calm Calm - N/A   Haze
9:11 PM 28.4°F 21.2°F 74% 30.18 in 2.5 miles Calm Calm - N/A   Haze
9:23 PM 28.4°F 21.2°F 74% 30.18 in 2.5 miles Calm Calm - N/A   Haze
9:32 PM 28.4°F 21.2°F 74% 30.18 in 2.0 miles Calm Calm - N/A   Haze
9:53 PM 28.0°F 21.9°F 78% 30.25 in 3.0 miles NNW 3.5 mph - N/A   Haze
10:53 PM 28.0°F 21.9°F 78% 30.23 in 4.0 miles Calm Calm - N/A   Haze
11:53 PM 28.9°F 23.0°F 78% 30.22 in 5.0 miles Calm Calm - N/A   Haze
Moon Phase
Jan. 05 Jan. 11 Jan. 18 Jan. 26 Feb. 03
Sunrise:07:47 AM (PST) Moon Rise:12:46 AM (PST)1/5
Sunset:04:28 PM (PST) Moon Set:11:32 AM (PST)1/5

Copyright © 2014 The Weather Underground, Inc.